User: anonymous   Login
Location: Caltech
(34.1382°N, 118.1253°W)
Time: 15:56:15
(UTC-07:00)
Language:

Iridium 94 - Orbit

View from above orbital plane
View from above orbital plane
View from above satellite
View from above satellite

Ground track
Ground track

The orbit data is extracted from the following two-line orbital elements,

1 27374U 02005C   14304.48366946  .00000294  00000-0  97919-4 0  7103
2 27374 086.3937 296.8742 0001363 027.0367 083.1355 14.34217599678390
Epoch (UTC): 31 October 2014 11:36:29
Eccentricity: 0.0001363
inclination: 86.3937°
perigee height: 776 km
apogee height: 778 km
right ascension of ascending node: 296.8742°
argument of perigee: 27.0367°
revolutions per day: 14.34217599
mean anomaly at epoch: 83.1355°
orbit number at epoch: 67839

The dashed part of the orbit path shows where the satellite is in the earth's shadow,  

DLR